{"data":{"norad_id":67134,"epoch":"2026-05-25T03:26:32.930880Z","epoch_age_seconds":66092,"freshness":"FRESH","line1":"1 67134U 25301B   26145.14343670  .00001937  00000+0  30609-3 0  9998","line2":"2 67134  51.9025  88.7381 0001158 136.9846 223.1206 14.76496920 25216","mean_motion":14.7649692,"eccentricity":0.0001158,"inclination_deg":51.9025,"raan_deg":88.7381,"arg_perigee_deg":136.9846,"mean_anomaly_deg":223.1206,"bstar":0.00030609,"rev_number":2521,"period_min":97.528141135574,"perigee_km":639.59076536517,"apogee_km":641.21625934783,"semimajor_km":7018.5405123565,"source":"CELESTRAK","updated_at":"2026-05-25T13:38:06.748096Z"}}